Location: Cerezo de Arriba
(41.2389°N, 3.5585°W)
Time: 03:32:33
(UTC+00:00)

ATLAS 3B R/B - Pass Details

Date: 19 May 2025
Orbit: 935 x 1258 km, 63.8° (Epoch: 23 June)

Event Time Altitude Azimuth Distance (km) Brightness Sun altitude
Exits shadow 23:17:19 55° 205° (SSW) 1,399 2.9 -27.5°
Maximum altitude 23:19:14 85° 124° (ESE) 1,203 2.8 -27.6°
Drops below altitude 10° 23:27:02 10° 35° (NE) 3,216 5.7 -27.9°
Sets 23:29:53 0° 35° (NE) 4,204 6.4 -28.0°
